星链-30579 (STARLINK-30579 )

导读 | 星芒AI

STARLINK-30579 是 SpaceX Starlink 卫星互联网项目中的一颗低轨卫星,属于第6批部署的星链卫星群。该卫星于2023年发射,运行在约550公里高度的近地轨道,旨在为全球提供高速、低延迟的宽带互联网服务。它采用先进的相控阵天线和激光通信技术,提升网络性能与连接稳定性。作为星链计划的一部分,STARLINK-30579 有助于扩大偏远地区的网络覆盖,并支持各类商业与民用通信需求。

基本信息
目录编号:
58061
目录名称:
STARLINK-30579
国际标识:
2023-158L
轨道中心:
EARTH
卫星名称:
星链-30579
卫星全名:
星链-30579 (STARLINK-30579 )
卫星状态:
在轨 (已飞行799 天)
发射日期:
2023-10-13 UTC
国别 :
美国 (US)
星等 :
--
轨道信息
数据来源 国际轨道数据
星历时间: 2025-12-20T06:06:31+0800
11小时前
查看轨道信息
半长轴: 6937.248km
偏心率: 0.0001129
轨道倾角: 43.004°
近地点辐角 273.338°
升交点赤经 78.328°
平近点角 86.734°
近地点: 558.327km
远地点: 559.895km
周期: 95.839分钟
每日圈数: 15.02526
详细信息
固有亮度:
5
最大亮度:
0.3
卫星平台:
Starlink v2.0 mini
覆盖范围:
全球
运营商:
太空探索技术公司
运营商所在国:
美国
制造商(研发单位):
太空探索技术公司
制造商所在国:
美国
使用方式:
暂无
卫星简介
星链(Starlink)计划是由太空探索技术公司(SpaceX)提出的一个巨型低轨卫星互联网星座项目,计划在2019年至2024年间在太空搭建由约1.2万颗卫星组成的“星链”网络,其中1584颗将部署在地球上空550千米处的近地轨道,并从2020年开始工作。该卫星仍在工作。
2D轨道图
3D轨道图
轨道高度分析图
轨道倾角分析图
轨道综合分析图
查看轨道综合分析图